Regional Weather Roundup
Issued by NWS Albany, NY

Home | Current Version | Previous Version | Text Only | Print | Product List | Glossary On
Versions: 1 2 3 4 5 6 7 8 9 10 11 12 13 14 15 16 17 18 19 20 21 22 23 24 25 26 27 28 29 30 31 32 33 34 35 36 37 38 39 40 41 42 43 44 45 46 47 48 49 50
126
ASUS41 KALY 240710
RWRALY

NEW YORK STATE HOURLY WEATHER ROUNDUP
NATIONAL WEATHER SERVICE ALBANY NY
200 AM EST FRI NOV 24 2017

NOTE: "FAIR" INDICATES FEW OR NO CLOUDS BELOW 12,000 FEET WITH NO
SIGNIFICANT WEATHER AND/OR NO OBSTRUCTIONS TO VISIBILITY.

NYZ032-033-038>043-046>054-057>066-NYZ062>081-082-084-240800-
EAST


CITY           SKY/WX    TMP DP  RH WIND       PRES   REMARKS
ALBANY         CLOUDY    33  20  58 S6        30.00R WCI  28
GLENS FALLS    CLOUDY    32  24  72 S6        29.97R WCI  26
POUGHKEEPSIE   CLEAR     25  20  81 CALM      30.02R
NEWBURGH       CLEAR     28  23  80 W8        30.02R WCI  20
MONTGOMERY     CLEAR     26  20  77 CALM      30.01R
WHITE PLAINS   CLEAR     28  22  78 CALM      30.01R
ISLIP          CLEAR     30  24  78 W6        30.03S WCI  24
NEW YORK CITY  CLEAR     39  22  50 W6        30.03F WCI  35
CENTRAL PARK   CLEAR     36  21  54 VRB3      30.05S
$$

NYZ005>009-017-018-044>046-055-056-240800-
CENTRAL


CITY           SKY/WX    TMP DP  RH WIND       PRES   REMARKS
FULTON         CLOUDY    38  25  59 SW7       29.95S WCI  33
SYRACUSE       CLOUDY    37  23  56 SW9       29.96S WCI  30
ROME           CLOUDY    36  25  64 CALM      29.98S
ELMIRA         CLOUDY    30  27  88 CALM      29.98S
BINGHAMTON     CLOUDY    31  20  63 SW6       29.95R WCI  25
MONTICELLO     MOCLDY    26  20  77 SW5       29.98R WCI  20
$$

NYZ026>034-041>043-087-240800-
NORTH


CITY           SKY/WX    TMP DP  RH WIND       PRES   REMARKS
WATERTOWN      CLOUDY    40  30  67 W14       29.92R WCI  32
FORT DRUM      NOT AVBL
OGDENSBURG     CLOUDY    37  27  66 SW8       29.89R WCI  31
MASSENA        CLOUDY    36  31  82 SW10      29.88R WCI  28
SARANAC LAKE   CLOUDY    30  29  96 MISG      29.85R
PLATTSBURGH    CLOUDY    37  28  70 VRB7      29.90R WCI  32
$$

NYZ001>004-010>016-019>021-085-240800-
WEST


CITY           SKY/WX    TMP DP  RH WIND       PRES   REMARKS
NIAGARA FALLS  CLOUDY    41  25  53 W9        29.93F
BUFFALO        CLOUDY    38  27  64 S7        29.94S WCI  33
DUNKIRK        CLOUDY    37  26  64 S10       29.96F WCI  30
JAMESTOWN      CLEAR     30  23  75 S7        29.94F WCI  23
WELLSVILLE     CLOUDY    35  20  54 SW6       29.95S WCI  30
ROCHESTER      CLOUDY    38  28  67 SW7       29.96S WCI  33
PENN YAN       CLOUDY    37  22  54 S9        29.95F WCI  30
$$

             KEY
       WCI = WIND CHILL INDEX
       VSB = VISIBILITY
       HX  = HEAT INDEX
$$




USA.gov is the U.S. government's official web portal to all federal, state and local government web resources and services.